Flag for Micronesia Weather past 2 weeks in Colonia, Yap, Micronesia

86 °F

Scattered clouds.

Feels Like: 97 °F
Forecast: 77 / 87 °F
Wind: 6 mph from North

Location: Yap Island

Current Time: Nov 26, 2015 at 10:52:22 AM

Latest Report: Nov 26, 2015 at 9:51 AM

Visibility: 12 mi

Pressure: 29.83 "Hg

Humidity: 76%

Dew point: 78 °F

Location of ColoniaLocation

Historic Weather in Colonia — Graph


Colonia temperature yesterday

Maximum temperature yesterday: 87 °F (at 10:52 AM)
Minimum temperature yesterday: 79 °F (at 11:54 PM)
Average temperature yesterday: 82 °F

Past Weeks' High & Low Weather Summary

High89 °F (Nov 17, 12:54 PM)96% (Nov 22, 12:50 AM)29.90 "Hg (Nov 22, 12:50 AM)
Low77 °F (Nov 21, 10:50 PM)65% (Nov 11, 1:50 PM)29.67 "Hg (Nov 21, 2:55 PM)
Average83 °F84%29.79 "Hg
* Reported Nov 11 8:51 AM — Nov 26 8:54 AM, Colonia, Weather by CustomWeather, © 2015

Note: Actual official high and low records may vary slightly from our data, if they occured in-between our weather recording intervals... More about our weather records


Colonia weather history for previous 24 hours

Time TempWeatherWind HumidityBarometerVisibility
8:54 AM
Thu, Nov 26
84 °FPassing clouds.No wind81%29.83 "Hg12 mi
7:50 AM81 °FPassing clouds.No wind90%29.80 "Hg12 mi
6:56 AM78 °FPassing clouds.6 mph94%29.78 "Hg12 mi
5:54 AM78 °FPassing clouds.No wind94%29.78 "Hg12 mi
4:55 AM78 °FPassing clouds.No wind94%29.76 "Hg12 mi
3:53 AM78 °FPassing clouds.No wind93%29.75 "Hg12 mi
2:54 AM79 °FPassing clouds.No wind92%29.76 "Hg12 mi
1:53 AM79 °FPassing clouds.No wind93%29.78 "Hg12 mi
12:55 AM80 °FPassing clouds.No wind91%29.80 "Hg12 mi
11:54 PM
Wed, Nov 25
79 °FPassing clouds.2 mph93%29.80 "Hg12 mi
10:53 PM80 °FPassing clouds.3 mph91%29.80 "Hg12 mi
9:53 PM80 °FPassing clouds.3 mph89%29.81 "Hg12 mi
8:53 PM81 °FPassing clouds.2 mph87%29.80 "Hg12 mi
7:53 PM82 °FPassing clouds.6 mph86%29.78 "Hg12 mi
6:52 PM82 °FScattered clouds.No wind85%29.76 "Hg12 mi
5:52 PM85 °FScattered clouds.No wind77%29.75 "Hg12 mi
4:50 PM87 °FScattered clouds.6 mph73%29.73 "Hg12 mi
3:53 PM84 °FScattered clouds.3 mph83%29.72 "Hg12 mi
2:54 PM84 °FScattered clouds.5 mph83%29.72 "Hg12 mi
1:55 PM82 °FSprinkles. Partly sunny.6 mph91%29.75 "Hg10 mi
12:52 PM84 °FScattered showers. Partly sunny.6 mph84%29.76 "Hg12 mi
11:51 AM87 °FPassing clouds.10 mph77%29.78 "Hg12 mi
10:52 AM87 °FPassing clouds.8 mph76%29.80 "Hg12 mi
Weather by CustomWeather, © 2015

See weather overviewHow to use our weather pages